Regional Weather Roundup
Issued by NWS

Home | Current Version | Previous Version | Text Only | Print | Product List | Glossary Off
Versions: 1 2 3 4 5 6 7 8 9 10 11 12 13 14 15 16 17 18 19 20 21 22 23 24 25 26 27 28 29 30 31 32 33 34 35 36 37 38 39 40 41 42 43 44 45 46 47 48 49 50

502
ASUS43 KMPX 240510
RWRMN
WEATHER ROUNDUP FOR MINNESOTA
NATIONAL WEATHER SERVICE TWIN CITIES/CHANHASSEN MN
1200 AM CDT SUN SEP 24 2017


NOTE: "FAIR" INDICATES FEW OR NO CLOUDS BELOW 12,000 FEET WITH NO
SIGNIFICANT WEATHER AND/OR OBSTRUCTIONS TO VISIBILITY. N/A MEANS
CURRENT SKY AND/OR WEATHER CONDITIONS ARE NOT AVAILABLE.

MNZ060>063-068>070-240600-
   Twin Cities Metro

CITY           SKY/WX    TMP DP  RH WIND       PRES   REMARKS
TWIN CITIES    MOCLDY    79  66  64 S6        29.94R
ST PAUL        PTCLDY    73  69  87 SE7       29.94R
CRYSTAL        PTCLDY    71  66  84 CALM      29.93S
BLAINE         PTCLDY    72  70  94 CALM      29.95S
LAKEVILLE      MOCLDY    70  64  83 S3        29.95S
EDEN PRAIRIE   PTCLDY    73  70  90 CALM      29.93S
SOUTH ST PAUL  PTCLDY    76  65  70 SE6       29.94S
LAKE ELMO      FAIR      73  66  78 SE5       29.96S
$$
MNZ001>005-007-008-013>017-022>024-027-028-240600-
   Northwest Minnesota

CITY           SKY/WX    TMP DP  RH WIND       PRES   REMARKS
BEMIDJI        LGT RAIN  55  54  97 E8        30.01R
HALLOCK        LGT RAIN  54  52  94 N7        30.04F
ROSEAU         CLOUDY    55  50  82 NE5       30.03F
WARROAD        LGT RAIN  55  52  88 N7        30.03F
THIEF RVR FALL LGT RAIN  55  53  93 N7        30.02R
CROOKSTON      RAIN      55  54  94 N3        30.02R
FOSSTON        CLOUDY    54  54 100 NE7       29.99R
DETROIT LAKES  RAIN      55  54  94 SE8       29.99S
MOORHEAD       LGT RAIN  55  54  94 N5        29.98S
PARK RAPIDS    RAIN      57  56  96 CALM      30.01R
MAHNOMEN       LGT RAIN  55  54  97 E9        29.96F
$$
MNZ006-009>011-018-025>026-240600-
   North Central Minnesota

CITY           SKY/WX    TMP DP  RH WIND       PRES   REMARKS
BAUDETTE       CLOUDY    55  54  96 NE5       30.02F
FLAG ISLAND    CLOUDY    55  52  88 NE7       30.02S
INTL FALLS     CLOUDY    57  54  89 CALM      30.03F
WASKISH        LGT RAIN  54  54 100 E6        30.01F
BIG FORK       LGT RAIN  55  54  94 CALM      30.02S
LONGVILLE      LGT RAIN  57  55  94 CALM      30.01F
GRAND RAPIDS   RAIN      58  57  97 CALM      30.05R
CRANE LAKE     CLOUDY    57  55  94 NW3       30.03F
ORR            CLOUDY    55  54  94 CALM      30.01R
COOK           CLOUDY    57  55  94 CALM      30.02R
WALKER         RAIN      55  55  98 NE5       30.01F
$$
MNZ012-019>021-037-240600-
   Northeast Minnesota

CITY           SKY/WX    TMP DP  RH WIND       PRES   REMARKS
DULUTH         CLOUDY    64  64 100 NE7       29.98F
ELY            CLOUDY    59  57  94 CALM      30.02S
HIBBING        LGT RAIN  58  57  97 N5        30.00F
EVELETH        RAIN      60  56  88 N3        30.02S
DULUTH HARBOR  CLOUDY    66  64  94 NE9       29.97S
GRAND MARAIS     N/A     65  63  93 N3        29.98F
$$
MNZ029>031-032-039>041-046>048-054>057-064-240600-
   West Central Minnesota

CITY           SKY/WX    TMP DP  RH WIND       PRES   REMARKS
FERGUS FALLS   RAIN      57  57 100 E12       29.96F
WHEATON        RAIN      57  55  94 NE5       29.95F
ALEXANDRIA     CLOUDY    59  58  96 NE12      29.94F
ELBOW LAKE     HVY RAIN  59  59 100 SE3       29.97R
WADENA         HVY RAIN  55  55 100 E10       29.97F
GLENWOOD       CLOUDY    59  57  94 NE10      29.94F
APPLETON       LGT RAIN  61  57  88 N3        29.96R
BENSON         CLOUDY    63  59  88 NW17G29   29.99R
ORTONVILLE     LGT RAIN  61  57  88 E7        29.94F
MADISON        CLOUDY    61  61 100 N8        29.95F
WILLMAR        FAIR      64  64 100 E8        29.94S
$$
MNZ033>034-036-042>043-049>051-058-059-240600-
   Central Minnesota

CITY           SKY/WX    TMP DP  RH WIND       PRES   REMARKS
ST CLOUD       CLOUDY    65  65 100 N5        29.95S
SAUK CENTRE    CLOUDY    60  59  97 NE10      29.95F
PAYNESVILLE    CLOUDY    63  63 100 NE5       29.95S
AITKIN         MIX PCPN  59  57  94 NW3       30.00R
PINE RIVER     RAIN      55  54  94 N5        30.03F
BRAINERD       RAIN      59  59 100 N8        29.99S FOG
STAPLES        LGT RAIN  55  55 100 NE6       29.98F
LITTLE FALLS   CLOUDY    61  59  94 NE3       29.96F
LITCHFIELD     CLOUDY    66  66 100 E7        29.95S
BUFFALO        CLOUDY    67  64  87 NE9       29.95F
MAPLE LAKE     MOCLDY    67  65  96 CALM      29.95F
HUTCHINSON     CLOUDY    67  66  96 NE5       29.95S
$$
MNZ037-044-045-052-053-240600-
   East Central Minnesota

CITY           SKY/WX    TMP DP  RH WIND       PRES   REMARKS
PRINCETON      MOCLDY    68  64  88 N5        29.95S
MORA           CLOUDY    64  64 100 NE3       29.98S
RUSH CITY      CLOUDY    68  66  92 CALM      29.96R
MOOSE LAKE     CLOUDY    64  61  88 NW5       29.97F
HINCKLEY       MOCLDY    68  64  88 N6        29.97R
CLOQUET        CLOUDY    66  61  82 N3        29.97F
MCGREGOR       CLOUDY    63  61  94 N6        29.99F
$$
MNZ071>073-080-081-089-090-097-098-240600-
   Southwest Minnesota

CITY           SKY/WX    TMP DP  RH WIND       PRES   REMARKS
MONTEVIDEO     CLOUDY    59  59 100 NW7       29.97R
GRANITE FALLS  CLOUDY    60  59  98 W12G17    29.98R FOG
CANBY          CLOUDY    58  57  96 NE5       29.96F
MARSHALL       CLOUDY    55  55 100 NW10      29.96F FOG
REDWOOD FALLS  MOCLDY    63  61  93 CALM      29.92S
OLIVIA         MOCLDY    64  63  94 E3        29.92S
PIPESTONE      CLOUDY    57  55  94 N6        29.96R FOG
WORTHINGTON    PTCLDY    62  61  96 CALM      29.93F
JACKSON        CLEAR     68  61  77 CALM      29.95R
TRACY          FOG       57  57 100 NW9G18    29.96R VSB 1/2
SLAYTON        MOCLDY    62  56  81 CALM      29.95R
$$
MNZ065>067-074>077-082>085-091>093-240600-
   South Central Minnesota

CITY           SKY/WX    TMP DP  RH WIND       PRES   REMARKS
MANKATO        PTCLDY    72  64  76 S6        29.94S
NEW ULM        MOCLDY    66  64  94 CALM      29.93R
ST JAMES       PTCLDY    64  64 100 E8        29.93S
FAIRMONT       PTCLDY    71  64  78 S9        29.94R
FARIBAULT      CLOUDY    75  63  64 S5        29.96S
OWATONNA       PTCLDY    75  63  64 SE9       29.96S
WASECA         PTCLDY    72  63  73 SE6       29.97R
ALBERT LEA     CLEAR     75  64  69 S5        29.97S
$$
MNZ078>079-086>088-094>096-240600-
   Southeast Minnesota

CITY           SKY/WX    TMP DP  RH WIND       PRES   REMARKS
ROCHESTER      CLEAR     71  63  75 S8        30.00S
RED WING       PTCLDY    73  63  68 E5        29.95R
STANTON        MOCLDY    73  64  72 CALM      29.94S
DODGE CENTER   CLEAR     70  63  78 SE8       29.99R
WINONA         CLEAR     70  66  88 CALM      29.98S
AUSTIN         PTCLDY    72  63  73 SE5       29.98S
PRESTON        CLEAR     70  61  73 S5        30.01S
$$
ABBREVIATIONS USED IN REMARKS
   TC - TEMPERATURES IN CELSIUS
  WCI - WIND CHILL INDEX
   HX - HEAT INDEX
  VSB - VISIBILITY
$$




USA.gov is the U.S. government's official web portal to all federal, state and local government web resources and services.